Bettles, AK

7:36 AM AKDT on September 19, 2017 (GMT -0800)
Bettles

Weather History for PABT - October, 2013

Change the Weather History Date:

Wednesday, October 23, 2013

  Actual Average Record
Temperature  
Mean Temperature 22 °F -  
Max Temperature 30 °F 19 °F 44 °F (2002)
Min Temperature 10 °F 5 °F -27 °F (1970)
Degree Days  
Heating Degree Days 43    
Moisture  
Dew Point 20 °F    
Average Humidity 83    
Maximum Humidity 93    
Minimum Humidity 65    
Precipitation  
Precipitation 0.00 in - - ()
Sea Level Pressure  
Sea Level Pressure 30.08 in    
Wind  
Wind Speed 5 mph (North)    
Max Wind Speed 8 mph    
Max Gust Speed -    
Visibility 8 miles    
Events Fog , Snow    
Averages and records for this station are not official NWS values.
T = Trace of Precipitation, MM = Missing Value Source: NWS Daily Summary

Daily Weather History Graph

Daily Weather History Graph

Search for Another Location

Airport or City:

Trip Planner

Search our weather history database for the weather conditions in past years. The results will help you decide how hot, cold, wet, or windy it might be!

Date:

Astronomy

Oct. 23, 2013 Rise Set
Actual Time 9:36 AM AKDT 6:03 PM AKDT
Civil Twilight 8:38 AM AKDT 7:00 PM AKDT
Nautical Twilight 7:36 AM AKDT 8:02 PM AKDT
Astronomical Twilight 6:34 AM AKDT 9:03 PM AKDT
Moon 8:19 PM AKDT (10/23) 3:27 PM AKDT (10/23)
Length of Visible Light 10h 21m
Length of Day
8h 26m
Waning Gibbous, 78% of the Moon is Illuminated
Oct 23
Waning Gibbous
Oct 26
Last Quarter
Nov 3
New
Nov 9
First Quarter
Nov 17
Full

Hourly Weather History & Observations

Time (AKDT) Temp. Windchill Dew Point Humidity Pressure Visibility Wind Dir Wind Speed Gust Speed Precip Events Conditions
12:53 AM 30.0 °F 24.1 °F 25.0 °F 82% 30.19 in 9.0 mi NNE 5.8 mph - N/A Snow Light Snow
1:53 AM 28.9 °F 21.1 °F 26.1 °F 89% 30.18 in 9.0 mi NNE 8.1 mph - N/A Snow Light Snow
2:53 AM 28.9 °F 22.8 °F 26.1 °F 89% 30.18 in 2.5 mi North 5.8 mph - N/A Snow Light Snow
3:22 AM 28.4 °F 22.2 °F 26.6 °F 93% 30.13 in 3.0 mi North 5.8 mph - N/A Snow Light Snow
3:36 AM 28.4 °F 21.2 °F 24.8 °F 86% 30.12 in 2.5 mi NNE 6.9 mph - N/A Snow Light Snow
3:53 AM 28.4 °F 22.2 °F 24.8 °F 86% 30.16 in 2.5 mi North 5.8 mph - N/A Snow Light Snow
4:06 AM 26.6 °F 21.2 °F 24.8 °F 93% 30.11 in 5.0 mi North 4.6 mph - N/A Snow Light Snow
4:53 AM 28.0 °F 21.7 °F 24.1 °F 85% 30.14 in 9.0 mi North 5.8 mph - N/A   Overcast
5:53 AM 28.0 °F 22.8 °F 23.0 °F 81% 30.13 in 10.0 mi North 4.6 mph - N/A   Overcast
6:53 AM 28.0 °F 21.7 °F 23.0 °F 81% 30.13 in 10.0 mi North 5.8 mph - N/A Snow Light Snow
7:53 AM 27.0 °F 19.5 °F 21.9 °F 81% 30.11 in 10.0 mi North 6.9 mph - N/A   Overcast
8:53 AM 27.0 °F 19.5 °F 21.0 °F 78% 30.10 in 10.0 mi NNE 6.9 mph - N/A Fog Overcast
9:53 AM 25.0 °F 17.1 °F 19.9 °F 81% 30.09 in 10.0 mi North 6.9 mph - N/A   Mostly Cloudy
10:53 AM 25.0 °F 20.7 °F 19.9 °F 81% 30.09 in 10.0 mi NNE 3.5 mph - N/A   Scattered Clouds
11:53 AM 26.1 °F 18.4 °F 19.9 °F 78% 30.08 in 10.0 mi North 6.9 mph - N/A   Mostly Cloudy
12:53 PM 26.1 °F 19.4 °F 19.9 °F 78% 30.07 in 10.0 mi North 5.8 mph - N/A   Mostly Cloudy
1:53 PM 27.0 °F 21.6 °F 21.0 °F 78% 30.06 in 10.0 mi North 4.6 mph - N/A   Mostly Cloudy
2:53 PM 26.1 °F 18.4 °F 19.9 °F 78% 30.04 in 10.0 mi NNE 6.9 mph - N/A   Scattered Clouds
3:53 PM 27.0 °F 20.5 °F 19.9 °F 75% 30.02 in 10.0 mi NNE 5.8 mph - N/A   Scattered Clouds
4:53 PM 26.1 °F - 21.0 °F 81% 30.01 in 10.0 mi Calm Calm - N/A   Partly Cloudy
5:53 PM 26.1 °F 21.9 °F 21.0 °F 81% 30.01 in 10.0 mi NNW 3.5 mph - N/A   Partly Cloudy
6:53 PM 24.1 °F 19.7 °F 19.9 °F 84% 30.00 in 10.0 mi North 3.5 mph - N/A   Partly Cloudy
7:53 PM 21.9 °F - 18.0 °F 85% 30.00 in 10.0 mi Calm Calm - N/A   Partly Cloudy
8:53 PM 16.0 °F - 14.0 °F 92% 30.01 in 10.0 mi Calm Calm - N/A   Partly Cloudy
9:53 PM 14.0 °F - 10.9 °F 88% 30.03 in 10.0 mi Calm Calm - N/A   Partly Cloudy
10:53 PM 14.0 °F - 10.9 °F 88% 30.04 in 10.0 mi Calm Calm - N/A   Partly Cloudy
11:53 PM 10.9 °F - 8.1 °F 88% 30.05 in 10.0 mi Calm Calm - N/A   Clear